Date,TemperatureHighF,TemperatureAvgF,TemperatureLowF,DewpointHighF,DewpointAvgF,DewpointLowF,HumidityHigh,HumidityAvg,HumidityLow,PressureMaxIn,PressureMinIn,WindSpeedMaxMPH,WindSpeedAvgMPH,GustSpeedMaxMPH,PrecipitationSumIn
2013-1-1,37.8,31.2,22.7,35.7,29.2,19.8,93,92,89,30.43,30.19,5,2,11,0.00
2013-1-2,33.7,24.7,15.3,26.3,20.5,12.9,99,85,62,30.47,30.37,5,1,7,0.00
2013-1-3,41.5,30.4,19.7,32.2,24.3,17.2,91,79,54,30.63,30.45,6,1,10,0.01
2013-1-4,47.8,33.2,20.9,29.5,24.1,18.4,92,72,40,30.64,30.49,7,2,11,0.00
2013-1-5,43.6,37.0,29.2,34.9,30.0,22.7,92,76,69,30.49,30.32,13,4,22,0.00
2013-1-6,44.0,33.2,25.1,31.8,25.0,19.9,91,73,47,30.55,30.39,5,1,13,0.00
2013-1-7,51.4,38.2,25.6,31.3,26.4,20.7,82,64,43,30.51,30.27,13,4,18,0.00
2013-1-8,55.7,43.7,32.3,45.7,35.2,25.0,91,73,54,30.34,30.19,14,4,18,0.21
2013-1-9,54.6,50.6,47.0,47.4,43.3,37.8,92,77,56,30.47,30.32,15,5,27,0.05
2013-1-10,57.9,51.6,47.8,53.5,47.1,39.1,89,85,61,30.33,29.91,13,6,24,0.18
2013-1-11,65.6,55.6,45.6,48.4,45.7,42.5,92,71,50,30.00,29.82,17,10,26,0.00
2013-1-12,58.7,41.7,27.1,50.6,34.8,24.6,90,78,47,30.13,29.91,11,4,21,0.59
2013-1-13,27.1,22.1,14.8,24.6,18.8,12.1,90,87,83,30.56,30.12,0,0,0,0.00
2013-1-14,31.6,22.2,13.3,22.6,17.2,10.7,89,81,65,30.68,30.52,1,0,5,0.01
2013-1-15,33.2,24.6,17.8,23.6,18.4,14.8,89,78,49,30.52,30.35,3,0,8,0.00
2013-1-16,42.5,28.7,16.3,23.8,19.5,13.4,89,71,41,30.39,30.28,5,1,9,0.03
2013-1-17,48.0,36.2,27.2,33.9,26.5,20.1,85,69,45,30.65,30.38,8,1,17,0.00
2013-1-18,55.1,39.2,29.2,34.2,28.8,24.1,84,69,40,30.67,30.42,16,5,23,0.00
2013-1-19,62.5,48.5,38.8,40.1,34.8,29.7,77,60,41,30.34,30.20,14,6,19,0.00
2013-1-20,61.3,44.7,28.9,36.9,29.8,19.3,76,57,38,30.43,30.25,8,2,17,0.00
2013-1-21,38.3,28.7,22.1,19.3,16.1,12.6,75,60,42,30.56,30.42,6,1,12,0.00
2013-1-22,47.0,32.7,21.2,28.4,21.8,14.8,77,65,47,30.50,30.36,8,1,13,0.00
2013-1-23,61.8,43.5,30.4,44.5,34.6,23.4,84,72,51,30.42,30.28,7,2,15,0.00
2013-1-24,43.0,38.5,35.8,33.8,24.2,19.0,88,57,46,30.45,30.24,10,4,18,0.00
2013-1-25,46.9,38.3,33.3,33.8,31.5,28.6,91,77,57,30.42,30.25,4,1,13,0.00
2013-1-26,60.1,46.5,33.4,30.3,27.0,22.3,82,49,27,30.42,30.25,8,2,14,0.00
2013-1-27,59.8,53.9,45.6,55.6,48.7,30.4,88,83,51,30.25,30.01,17,11,27,0.01
2013-1-28,72.3,67.0,59.8,63.3,60.9,55.6,86,81,69,30.06,29.88,18,13,27,0.00
2013-1-29,69.4,59.7,44.3,63.4,55.3,41.8,91,86,71,29.88,29.55,16,8,27,2.11
2013-1-30,44.8,33.0,22.6,42.3,28.5,19.0,92,83,73,30.22,29.65,14,6,28,0.01
2013-1-31,45.0,28.8,18.8,30.8,21.6,11.0,88,75,52,30.63,30.18,11,3,20,0.00
2013-2-1,43.7,26.6,13.4,20.3,13.8,7.4,80,60,36,30.64,30.36,5,1,11,0.00
2013-2-2,52.3,39.7,27.7,34.2,27.3,18.8,75,62,46,30.43,30.34,6,1,12,0.00
2013-2-3,53.0,44.4,34.4,30.7,27.9,23.6,76,53,35,30.44,30.09,7,2,21,0.00
2013-2-4,61.3,49.9,38.4,47.3,37.1,28.5,81,62,41,30.09,29.95,16,5,25,0.05
2013-2-5,63.5,47.1,33.8,49.1,35.7,30.1,88,68,35,30.19,30.04,6,1,15,0.00
2013-2-6,65.2,51.7,41.5,44.5,37.9,32.7,77,60,44,30.22,30.05,11,5,19,0.00
2013-2-7,55.5,51.3,43.0,52.0,47.5,39.1,90,87,77,30.23,29.98,9,5,21,0.10
2013-2-8,51.5,41.6,33.5,39.0,33.3,29.8,87,74,49,30.43,30.23,8,2,16,0.00
2013-2-9,47.8,41.4,35.2,43.9,34.9,31.0,89,78,57,30.35,29.92,15,7,27,0.12
2013-2-10,59.0,52.1,39.6,51.2,38.5,27.8,89,63,35,30.17,29.75,14,8,23,0.08
2013-2-11,50.3,38.8,29.2,29.5,27.0,24.1,83,64,39,30.35,30.17,5,1,14,0.00
2013-2-12,45.9,38.0,33.2,35.1,30.1,25.9,90,74,54,30.30,30.06,7,1,13,0.07
2013-2-13,50.8,39.2,33.7,38.4,33.2,30.6,92,80,52,30.17,30.08,8,2,14,0.13
2013-2-14,55.3,43.4,31.1,37.2,32.1,26.0,83,66,47,30.32,30.10,6,2,15,0.00
2013-2-15,43.5,33.6,23.0,32.0,22.2,15.3,82,64,39,30.50,30.32,9,3,19,0.00
2013-2-16,31.4,29.0,23.5,25.7,23.3,17.9,86,79,67,30.47,30.44,7,2,22,0.00
2013-2-17,63.6,48.5,31.2,35.9,28.0,16.2,63,46,32,30.28,29.93,14,7,22,0.00
2013-2-18,58.9,50.3,34.3,53.5,39.6,25.6,86,67,44,30.26,29.71,21,12,31,0.07
2013-2-19,43.7,33.7,21.6,25.8,22.1,16.8,88,64,43,30.49,30.26,8,2,17,0.00
2013-2-20,36.6,32.2,28.8,31.3,22.8,14.5,88,69,50,30.47,30.22,7,2,16,0.09
2013-2-21,36.8,33.9,30.4,34.4,30.7,26.1,91,88,82,30.22,29.83,11,3,18,0.02
2013-2-22,36.5,28.5,21.7,31.5,21.9,18.1,88,77,58,30.31,30.02,10,3,21,0.00
2013-2-23,45.0,31.1,20.1,26.7,22.3,17.4,90,72,45,30.29,30.13,5,0,9,0.00
2013-2-24,59.1,44.3,30.1,38.6,31.3,23.8,79,62,41,30.15,29.95,10,3,18,0.00
2013-2-25,42.5,38.9,35.0,36.8,33.6,30.5,92,82,65,30.01,29.58,12,5,24,0.60
2013-2-26,35.5,34.1,33.0,32.9,31.4,30.6,92,90,86,30.06,29.55,11,3,19,0.20
2013-2-27,39.5,34.8,32.4,32.9,29.9,27.2,89,82,72,30.25,30.03,11,3,22,0.05
2013-2-28,36.5,33.0,30.0,29.4,27.8,26.2,92,81,75,30.37,30.24,8,3,14,0.00
2013-3-1,32.6,30.3,27.0,26.9,23.8,21.3,83,77,68,30.45,30.34,10,4,18,0.00
2013-3-2,38.4,29.2,21.5,24.7,21.5,18.5,89,74,51,30.53,30.38,7,2,14,0.00
2013-3-3,57.1,42.9,27.3,35.3,28.4,21.6,80,58,39,30.38,29.88,12,4,19,0.00
2013-3-4,65.3,54.9,43.2,47.6,40.8,32.5,77,59,47,29.99,29.70,13,6,24,0.00
2013-3-5,44.7,38.1,31.3,35.1,27.1,19.8,90,66,45,30.49,30.01,14,9,29,0.12
2013-3-6,47.9,33.9,24.1,26.6,22.2,19.0,82,64,42,30.58,30.45,8,2,14,0.00
2013-3-7,61.4,48.7,35.7,33.1,29.6,25.7,68,49,30,30.41,30.26,11,3,18,0.00
2013-3-8,61.4,53.1,44.1,41.3,36.7,31.7,66,54,45,30.34,30.14,11,5,19,0.00
2013-3-9,65.2,58.3,51.5,56.7,48.6,37.3,89,71,51,30.14,29.76,14,7,24,0.63
2013-3-10,55.9,44.6,30.4,52.7,41.4,26.4,92,89,84,30.11,29.74,13,5,23,0.42
2013-3-11,45.8,34.9,27.9,29.4,25.2,21.2,85,69,38,30.20,30.08,10,3,19,0.00
2013-3-12,55.0,42.8,29.3,34.5,28.4,22.8,84,59,36,30.49,30.19,9,2,21,0.00
2013-3-13,52.8,39.3,26.4,25.3,22.4,19.8,82,53,28,30.63,30.48,3,0,10,0.00
2013-3-14,71.5,53.4,39.0,46.3,34.7,21.9,68,50,36,30.50,30.22,14,4,20,0.00
2013-3-15,77.9,63.4,47.9,51.7,46.8,41.7,81,57,33,30.22,29.86,15,7,25,0.00
2013-3-16,72.3,61.2,47.4,53.2,46.8,39.2,78,60,48,29.95,29.83,12,5,20,0.00
2013-3-17,47.4,43.7,40.9,43.9,40.6,38.0,91,89,73,29.98,29.80,11,3,24,0.15
2013-3-18,55.3,45.5,36.8,43.4,37.7,29.9,91,76,40,30.19,29.81,10,3,19,0.01
2013-3-19,57.1,44.1,33.1,31.2,26.4,16.6,78,53,24,30.41,30.15,9,2,19,0.00
2013-3-20,46.6,38.2,30.0,31.7,24.3,16.9,88,61,32,30.52,30.26,10,2,18,0.00
2013-3-21,41.7,35.8,33.8,33.4,24.6,12.5,89,66,31,30.26,29.94,11,4,22,0.25
2013-3-22,43.0,38.5,34.3,39.1,35.1,31.4,90,88,84,30.09,29.97,6,1,17,0.09
2013-3-23,42.2,39.4,37.4,39.6,36.7,34.3,91,90,88,30.07,29.85,6,2,13,0.03
2013-3-24,40.7,32.9,28.5,38.3,29.2,22.4,91,86,76,30.30,29.81,15,7,29,0.08
2013-3-25,35.6,29.6,24.4,26.2,22.5,18.8,82,75,62,30.53,30.29,11,5,20,0.00
2013-3-26,44.6,33.0,24.3,25.9,22.8,20.4,88,68,43,30.62,30.47,6,1,12,0.00
2013-3-27,58.0,45.7,30.8,33.0,27.6,22.3,71,51,32,30.47,30.26,11,3,16,0.00
2013-3-28,68.8,56.3,45.0,52.2,41.7,30.7,73,58,50,30.33,30.21,14,5,21,0.00
2013-3-29,67.3,58.8,53.3,57.7,52.6,47.5,88,80,68,30.30,30.19,7,2,12,0.15
2013-3-30,68.7,59.7,52.4,59.3,54.2,48.9,89,83,68,30.23,29.98,16,3,35,0.58
2013-3-31,68.5,57.6,47.9,54.2,47.4,40.5,89,72,37,30.10,29.97,15,1,30,0.14
2013-4-1,59.7,47.9,42.3,44.5,40.0,31.4,89,75,54,30.33,30.08,9,3,18,0.00
2013-4-2,42.5,38.4,36.2,36.6,34.6,30.7,90,86,64,30.41,30.31,7,3,17,0.53
2013-4-3,50.7,43.0,37.6,37.9,30.5,25.6,86,62,44,30.42,30.31,14,2,23,0.00
2013-4-4,59.0,48.0,41.2,39.9,37.3,34.0,88,68,42,30.31,30.19,7,1,13,0.02
2013-4-5,68.6,52.4,34.4,47.1,38.5,30.9,88,63,33,30.34,30.09,5,1,10,0.00
2013-4-6,72.5,61.9,53.5,51.7,46.3,38.2,71,57,43,30.10,29.89,20,8,33,0.00
2013-4-7,73.8,63.5,53.1,61.7,55.3,48.7,86,75,61,30.01,29.83,13,5,22,0.00
2013-4-8,70.8,65.7,60.7,62.8,58.9,55.5,86,79,72,29.89,29.79,15,7,21,0.17
2013-4-9,77.8,71.4,64.3,65.9,61.4,57.1,80,71,58,29.85,29.76,13,7,20,0.00
2013-4-10,72.9,49.3,39.6,63.4,45.3,37.2,91,87,65,30.03,29.79,12,4,24,1.21
2013-4-11,50.9,39.9,33.9,35.6,32.4,30.1,91,76,47,30.05,29.91,9,2,17,0.03
2013-4-12,55.8,44.7,34.8,38.4,33.6,29.3,85,67,46,30.17,29.96,9,2,18,0.00
2013-4-13,68.9,54.6,41.2,51.5,42.7,34.7,81,65,45,30.19,29.89,13,4,21,0.00
2013-4-14,76.0,66.1,56.9,55.5,50.8,46.2,76,59,42,29.89,29.61,17,8,30,0.00
2013-4-15,77.6,63.8,52.4,67.0,54.6,42.8,86,72,56,29.95,29.76,11,3,22,0.00
2013-4-16,67.7,57.3,50.7,59.4,52.5,47.0,89,84,74,30.09,29.95,7,2,17,0.01
2013-4-17,79.9,70.8,55.6,69.6,63.4,51.5,88,78,65,30.05,29.67,13,6,22,0.03
2013-4-18,72.0,48.7,38.0,66.1,43.6,27.6,92,82,66,30.16,29.59,13,7,27,3.25
2013-4-19,55.9,44.1,33.8,36.5,30.0,26.2,77,59,36,30.27,30.14,10,4,23,0.00
2013-4-20,66.0,53.4,38.8,43.0,37.2,31.8,78,56,37,30.34,30.20,8,1,11,0.00
2013-4-21,66.9,58.1,49.7,45.3,41.7,38.1,72,55,38,30.37,30.22,10,4,20,0.00
2013-4-22,70.6,60.2,49.1,50.5,44.0,38.9,70,56,42,30.29,29.99,9,4,17,0.00
2013-4-23,61.9,48.0,36.4,51.7,42.9,33.7,91,84,58,30.28,29.91,8,3,16,0.16
2013-4-24,53.0,41.9,34.7,34.7,31.9,27.2,90,70,38,30.47,30.27,7,1,17,0.00
2013-4-25,67.7,52.2,34.4,43.1,34.5,28.5,83,55,29,30.52,30.32,3,0,6,0.00
2013-4-26,57.6,52.3,48.7,49.1,45.9,37.3,88,80,48,30.42,30.20,10,4,26,0.55
2013-4-27,55.9,52.9,51.5,52.7,49.8,48.4,92,89,88,30.23,30.09,9,2,17,0.10
2013-4-28,75.3,61.0,50.2,57.8,52.0,47.1,90,74,46,30.17,29.97,5,1,9,0.00
2013-4-29,81.6,69.2,55.5,65.7,57.0,50.5,85,67,44,29.99,29.84,13,6,19,0.00
2013-4-30,79.4,70.2,60.1,61.9,54.6,47.8,80,60,34,29.94,29.87,13,5,22,0.00
2013-5-1,81.6,70.3,61.3,65.7,58.7,50.3,81,68,47,30.15,29.94,8,3,13,0.00
2013-5-2,63.8,46.8,33.3,58.2,43.1,30.9,91,87,80,30.45,30.11,9,4,20,0.37
2013-5-3,48.7,40.1,33.0,36.7,33.3,30.7,91,78,53,30.42,30.11,11,5,26,0.43
2013-5-4,46.0,40.6,36.8,39.4,36.1,33.9,90,84,72,30.17,30.00,8,2,19,0.30
2013-5-5,57.0,47.6,35.4,49.5,42.7,32.5,90,83,71,30.25,30.16,5,1,15,0.01
2013-5-6,62.5,53.4,47.0,54.4,48.6,43.3,88,84,73,30.24,30.14,4,1,11,0.00
2013-5-7,76.5,61.3,44.5,59.1,50.9,41.5,92,71,45,30.22,30.08,3,0,7,0.01
2013-5-8,77.4,65.5,58.1,63.6,56.3,50.7,85,73,52,30.17,29.98,10,2,16,0.08
2013-5-9,74.8,65.0,59.0,64.7,58.7,54.8,86,80,65,30.07,29.96,11,2,28,2.28
2013-5-10,68.4,61.9,52.4,59.7,55.3,47.4,84,79,68,30.17,30.00,8,2,16,0.33
2013-5-11,73.1,59.3,46.4,58.6,47.3,38.5,83,67,34,30.33,30.17,7,1,18,0.00
2013-5-12,69.2,54.1,40.3,50.7,40.5,32.1,84,64,32,30.41,30.26,4,0,9,0.02
2013-5-13,64.2,53.6,50.4,50.0,44.9,43.3,80,73,59,30.29,30.24,10,1,18,0.00
2013-5-14,84.3,71.8,59.3,64.1,56.9,51.3,77,61,36,30.15,30.02,7,4,14,0.00
2013-5-15,74.3,67.3,61.5,67.0,59.5,52.6,83,76,67,30.06,29.93,9,4,17,0.34
2013-5-16,69.1,64.8,61.4,61.3,57.3,53.0,79,76,74,29.98,29.91,5,1,10,0.40
2013-5-17,80.7,69.6,60.0,67.9,59.9,51.3,77,71,59,30.03,29.95,3,0,8,0.01
2013-5-18,83.8,75.7,66.1,74.6,66.5,56.5,76,73,68,30.00,29.84,8,3,13,0.00
2013-5-19,84.5,77.2,68.1,70.3,66.1,60.6,77,69,54,29.94,29.69,11,6,20,0.02
2013-5-20,77.0,69.5,64.2,68.1,60.1,53.3,78,72,65,29.89,29.69,10,2,18,0.09
2013-5-21,65.9,62.0,58.6,55.8,51.3,46.9,72,68,65,29.99,29.71,9,2,25,0.46
2013-5-22,74.3,63.9,52.5,61.4,52.0,41.5,72,65,59,30.04,29.90,5,1,14,0.00
2013-5-23,73.3,64.4,55.4,62.3,53.0,42.6,72,67,58,30.26,30.04,3,1,9,0.00
2013-5-24,77.9,66.7,57.4,65.2,56.0,46.7,72,69,63,30.36,30.23,8,3,17,0.00
2013-5-25,80.3,70.2,59.9,68.5,59.8,51.2,73,70,65,30.32,30.13,8,3,13,0.00
2013-5-26,80.0,73.2,67.4,68.6,61.5,53.1,71,67,60,30.20,30.04,9,3,17,0.00
2013-5-27,81.6,74.6,68.1,69.6,62.4,52.6,71,66,55,30.06,29.86,11,6,18,0.00
2013-5-28,80.5,74.5,70.9,69.0,63.7,59.5,72,69,65,29.94,29.82,12,6,20,0.00
2013-5-29,78.5,74.4,70.4,68.2,64.4,59.7,72,71,69,29.95,29.80,8,4,16,0.00
2013-5-30,77.8,69.3,63.4,65.8,54.5,45.6,72,59,48,29.92,29.78,13,4,20,1.91
2013-5-31,83.3,75.8,64.6,70.3,58.7,46.8,66,56,47,29.89,29.72,10,4,19,0.05
2013-6-1,78.4,69.6,61.9,65.7,53.0,43.7,68,56,45,30.09,29.73,7,1,21,0.22
2013-6-2,69.4,62.0,54.5,57.3,47.3,37.2,67,59,47,30.17,30.08,4,0,11,0.00
2013-6-3,77.9,64.1,47.4,63.8,49.7,31.1,70,60,47,30.17,29.99,1,0,8,0.01
2013-6-4,77.7,68.9,62.9,66.2,54.8,45.6,68,61,47,30.08,29.98,6,1,16,0.02
2013-6-5,78.6,70.2,65.3,65.4,54.0,42.5,66,57,40,30.10,29.96,8,1,25,0.78
2013-6-6,74.3,66.6,58.7,61.7,48.7,38.7,66,53,40,30.05,29.99,3,0,9,0.01
2013-6-7,77.3,66.0,53.2,60.2,48.2,32.9,68,53,42,30.11,30.00,4,0,11,0.00
2013-6-8,79.2,69.1,56.9,65.2,55.4,39.8,69,62,51,30.05,29.92,1,0,8,0.00
2013-6-9,82.5,72.8,66.0,66.1,58.6,48.8,68,61,46,30.00,29.92,5,0,13,0.02
2013-6-10,89.4,77.8,65.4,73.8,64.2,50.7,67,63,52,30.01,29.93,4,0,16,0.00
2013-6-11,89.4,80.4,71.1,74.9,65.3,51.5,67,60,50,30.06,29.96,5,1,11,0.00
2013-6-12,89.0,80.6,74.0,73.2,64.7,50.7,67,59,44,30.05,29.95,10,3,17,0.00
2013-6-13,89.6,79.8,71.7,72.0,61.5,45.4,66,54,38,30.10,29.99,2,0,8,0.00
2013-6-14,90.5,80.2,70.4,76.2,64.1,48.6,65,58,46,30.09,29.98,2,0,7,0.00
2013-6-15,87.4,76.9,69.5,74.2,59.6,43.4,66,56,38,30.11,30.00,6,1,16,0.57
2013-6-16,87.9,77.2,69.8,73.3,55.2,43.0,63,47,36,30.08,29.96,4,0,11,0.00
2013-6-17,73.5,70.1,67.3,49.3,43.3,40.1,46,38,36,30.07,29.94,6,1,13,0.85
2013-6-18,86.3,74.8,65.2,69.9,52.7,38.9,62,47,34,30.13,30.03,2,0,7,0.01
2013-6-19,85.4,75.6,63.6,69.3,56.7,36.8,63,52,35,30.13,30.03,2,0,8,0.00
2013-6-20,88.6,79.1,69.3,74.4,62.5,45.4,64,57,42,30.14,30.03,6,1,11,0.00
2013-6-21,89.9,82.2,75.6,75.0,63.0,46.5,64,53,35,30.13,30.04,6,2,11,0.00
2013-6-22,87.6,81.2,73.8,73.4,63.8,48.2,64,56,40,30.11,29.98,6,2,12,0.00
2013-6-23,89.6,81.6,75.3,74.5,63.9,48.6,65,56,39,30.05,29.94,7,3,15,0.00
2013-6-24,89.0,81.3,74.2,73.3,65.1,51.5,65,58,45,30.10,29.99,6,2,11,0.00
2013-6-25,87.0,80.8,76.0,72.5,65.2,53.7,65,59,46,30.03,29.89,11,4,20,0.00
2013-6-26,92.8,82.8,76.4,78.3,66.3,50.3,66,58,36,29.99,29.89,7,3,15,0.24
2013-6-27,96.3,85.0,73.8,78.0,62.5,42.9,62,48,32,30.04,29.91,1,0,4,0.00
2013-6-28,91.6,82.0,71.6,73.3,64.5,51.0,67,56,43,30.01,29.87,4,0,10,0.00
2013-6-29,86.4,76.0,62.8,63.5,55.5,38.3,67,50,34,29.98,29.88,9,1,24,0.00
2013-6-30,79.5,70.4,62.0,63.9,55.9,40.9,66,60,45,30.06,29.92,4,1,16,0.00
2013-7-1,81.2,70.2,60.6,61.9,50.4,36.5,67,50,35,30.15,30.06,4,0,17,0.00
2013-7-2,82.0,69.1,54.2,59.8,48.4,31.6,66,48,35,30.19,30.13,2,0,11,0.00
2013-7-3,85.1,70.7,57.2,59.9,49.7,35.8,65,49,30,30.20,30.08,1,0,7,0.00
2013-7-4,87.6,74.4,63.2,64.5,56.7,48.7,66,55,35,30.15,30.04,2,0,8,0.00
2013-7-5,89.8,77.8,62.9,64.1,59.0,49.2,66,54,34,30.11,29.99,3,0,11,0.00
2013-7-6,88.1,76.5,66.5,66.9,61.5,53.9,67,60,41,30.10,30.00,0,0,5,0.00
2013-7-7,93.2,81.3,72.3,69.8,64.1,60.1,67,57,34,30.11,30.03,0,0,7,0.00
2013-7-8,93.2,82.3,72.2,72.8,66.8,58.0,67,60,46,30.16,30.07,1,0,5,0.00
2013-7-9,95.0,84.0,74.6,73.3,66.5,53.5,66,56,45,30.14,30.01,3,0,11,0.00
2013-7-10,99.1,85.5,72.9,75.4,67.3,51.2,66,56,41,30.08,29.95,5,0,10,0.00
2013-7-11,95.6,83.8,73.3,76.3,64.1,46.7,64,52,38,30.07,29.97,3,0,12,0.00
2013-7-12,94.8,82.8,71.8,72.8,66.4,60.2,67,59,38,30.09,30.01,4,1,11,0.00
2013-7-13,92.8,79.6,67.2,69.4,62.3,56.7,69,56,42,30.11,30.01,5,1,9,0.00
2013-7-14,89.2,78.9,67.7,62.7,58.9,51.9,69,52,29,30.12,30.02,7,2,18,0.00
2013-7-15,88.2,77.9,68.4,70.8,63.7,51.7,69,62,46,30.25,30.12,8,2,17,0.00
2013-7-16,90.5,76.5,69.5,71.3,50.0,40.9,61,40,32,30.35,30.24,6,1,12,0.21
2013-7-17,92.6,81.2,72.2,71.1,58.6,42.3,64,47,32,30.39,30.25,4,1,10,0.00
2013-7-18,95.0,82.3,68.9,73.1,60.7,40.8,64,49,36,30.29,30.08,5,0,11,0.00
2013-7-19,96.8,82.4,71.7,72.4,63.6,47.6,65,54,37,30.11,29.96,4,0,12,0.00
2013-7-20,93.5,80.4,69.7,73.5,59.9,41.3,65,50,35,30.03,29.89,6,1,18,0.00
2013-7-21,84.9,75.9,71.2,69.5,51.6,42.0,60,44,32,30.03,29.91,5,1,13,0.79
2013-7-22,88.4,77.7,67.1,73.7,58.3,40.7,64,52,34,30.10,29.90,8,1,21,0.76
2013-7-23,96.4,84.6,73.7,78.8,65.5,44.3,63,53,35,29.99,29.84,10,1,27,0.60
2013-7-24,86.9,76.5,68.9,71.5,53.9,40.1,61,47,33,30.10,29.89,10,1,16,0.64
2013-7-25,86.6,76.7,66.1,70.6,54.5,37.6,63,47,33,30.16,30.09,3,0,8,0.01
2013-7-26,76.1,73.0,67.6,53.1,44.4,39.0,46,36,33,30.12,30.06,4,1,7,0.80
2013-7-27,81.3,72.4,64.7,64.6,50.8,38.6,65,48,34,30.16,30.05,4,0,11,0.00
2013-7-28,80.1,70.1,63.8,66.7,52.2,37.9,65,54,37,30.14,30.07,4,0,15,0.00
2013-7-29,85.9,77.6,69.4,72.6,59.5,43.4,65,54,37,30.13,30.03,7,3,16,0.08
2013-7-30,87.0,78.9,70.6,73.3,55.6,40.1,64,46,32,30.12,30.05,7,1,17,1.10
2013-7-31,78.1,75.3,72.7,46.6,43.4,41.1,33,32,31,30.14,30.08,0,0,4,0.00
2013-8-1,89.2,77.6,66.7,71.2,55.1,37.4,63,47,32,30.18,30.04,4,0,10,0.00
2013-8-2,87.1,79.5,74.2,72.5,59.1,46.2,62,50,33,30.06,29.93,5,2,12,0.05
2013-8-3,85.7,78.9,69.3,71.2,56.2,38.9,63,47,33,30.15,29.95,6,2,14,0.54
2013-8-4,78.1,75.8,73.5,54.2,46.9,41.8,45,36,32,30.21,30.06,5,1,13,0.36
2013-8-5,91.5,81.9,74.1,77.1,59.8,42.3,63,48,32,30.10,29.90,5,2,11,0.16
2013-8-6,91.4,82.9,73.9,77.3,65.9,46.8,66,57,38,29.96,29.85,6,2,12,0.00
2013-8-7,87.1,80.5,75.0,71.3,55.7,42.7,61,43,30,30.03,29.87,6,1,11,0.59
2013-8-8,83.0,76.2,69.4,66.3,50.6,39.0,60,42,32,30.05,29.93,7,1,24,3.67
2013-8-9,85.1,76.0,69.7,71.5,51.6,39.3,64,44,32,30.13,29.99,6,0,10,0.20
2013-8-10,85.2,75.3,67.4,71.6,52.8,37.3,65,47,32,30.20,30.11,5,1,12,0.00
2013-8-11,88.7,77.7,69.8,74.5,53.5,38.6,64,45,31,30.17,30.08,2,0,7,0.00
2013-8-12,83.2,75.9,71.6,69.2,48.7,41.1,64,39,31,30.17,30.03,5,0,17,0.41
2013-8-13,80.4,72.6,66.9,66.1,43.7,37.6,65,36,32,30.15,30.06,6,0,11,0.26
2013-8-14,79.1,70.2,61.7,64.7,49.6,35.3,66,49,34,30.24,30.15,7,1,13,0.00
2013-8-15,80.6,67.9,58.2,62.9,49.3,32.2,66,52,37,30.23,30.10,3,0,9,0.01
2013-8-16,79.2,69.6,62.5,64.4,55.3,39.1,68,61,42,30.23,30.12,1,0,7,0.00
2013-8-17,78.7,67.4,56.7,64.5,47.1,30.0,65,49,34,30.26,30.15,5,0,12,0.00
2013-8-18,83.2,71.7,61.2,68.0,50.8,32.8,65,49,33,30.24,30.14,3,0,8,0.01
2013-8-19,85.9,73.2,62.1,69.4,51.5,33.4,66,47,33,30.22,30.09,2,0,6,0.00
2013-8-20,85.1,75.2,65.4,70.5,56.4,38.2,66,53,36,30.18,30.09,3,0,6,0.00
2013-8-21,89.4,77.7,67.7,73.4,61.9,47.9,67,58,49,30.19,30.11,5,1,9,0.00
2013-8-22,91.9,79.3,70.1,74.3,65.1,52.8,67,62,45,30.20,30.08,3,0,8,0.00
2013-8-23,92.0,80.0,68.4,74.6,61.2,38.4,65,54,33,30.16,30.06,2,0,7,0.00
2013-8-24,89.9,80.6,72.4,74.2,63.3,45.4,66,56,38,30.22,30.11,4,0,11,0.00
2013-8-25,92.3,81.6,72.2,75.9,64.5,43.8,65,57,36,30.28,30.19,4,0,8,0.00
2013-8-26,89.5,80.2,71.8,74.0,62.1,41.6,64,55,33,30.28,30.16,3,1,8,0.00
2013-8-27,88.1,78.1,69.1,71.6,58.6,40.9,64,52,35,30.21,30.10,5,1,9,0.00
2013-8-28,90.6,79.3,70.3,74.6,59.1,43.9,64,51,37,30.16,30.09,4,1,9,0.00
2013-8-29,95.2,82.4,73.1,75.7,63.3,44.8,64,53,36,30.15,30.05,5,0,11,0.00
2013-8-30,94.4,83.3,74.2,76.5,66.7,53.4,65,58,46,30.08,29.94,5,1,11,0.00
2013-8-31,96.1,83.1,74.9,78.1,66.9,56.8,65,58,45,29.98,29.86,4,1,10,0.00
2013-9-1,93.5,79.3,74.1,75.0,61.7,42.3,66,56,32,29.99,29.87,8,1,17,0.09
2013-9-2,85.4,75.3,65.1,68.0,52.9,37.5,64,47,31,30.09,29.98,5,1,12,0.00
2013-9-3,87.4,73.1,59.5,66.8,50.3,31.1,64,46,32,30.17,30.07,4,0,8,0.01
2013-9-4,89.1,74.8,63.5,69.3,54.8,36.0,66,51,36,30.24,30.13,2,0,7,0.00
2013-9-5,89.5,76.5,64.3,68.6,60.4,47.2,66,58,40,30.26,30.17,3,0,8,0.00
2013-9-6,91.5,77.1,64.0,71.2,60.1,42.6,67,56,40,30.22,30.08,3,0,6,0.00
2013-9-7,95.5,80.2,69.0,74.9,63.9,55.2,67,59,40,30.12,30.00,4,1,11,0.00
2013-9-8,95.1,81.7,70.3,74.4,64.9,54.6,66,58,41,30.04,29.95,5,1,11,0.00
2013-9-9,92.9,80.5,69.7,70.7,63.9,54.4,67,58,39,30.08,29.99,6,1,12,0.00
2013-9-10,92.5,79.3,70.2,72.0,63.7,58.3,67,60,37,30.20,30.06,6,1,13,0.00
2013-9-11,93.5,79.9,70.1,72.3,63.2,53.7,66,57,41,30.23,30.11,4,0,8,0.00
2013-9-12,91.6,78.6,68.1,72.3,59.3,37.2,63,52,31,30.18,30.07,5,1,13,0.00
2013-9-13,83.4,72.4,59.7,56.9,53.9,48.2,67,53,37,30.17,30.06,7,2,13,0.00
2013-9-14,82.1,67.7,55.0,59.7,50.4,35.0,66,55,41,30.18,30.06,6,1,13,0.00
2013-9-15,88.8,74.1,61.4,68.3,58.8,50.3,67,60,47,30.14,30.07,6,1,10,0.00
2013-9-16,76.8,72.3,69.1,62.2,47.9,37.2,66,43,31,30.28,30.12,4,1,10,0.16
2013-9-17,79.9,73.5,67.5,65.7,50.2,38.1,63,45,31,30.23,30.08,4,1,10,0.07
2013-9-18,89.0,78.6,71.0,72.0,62.2,46.9,64,58,42,30.10,29.98,7,3,12,0.00
2013-9-19,89.9,79.1,71.0,71.8,63.8,39.6,65,60,32,30.06,29.92,8,3,20,0.23
2013-9-20,71.0,66.6,56.0,58.8,44.3,36.5,69,47,31,30.08,30.00,4,0,12,0.63
2013-9-21,75.8,61.3,47.6,57.1,41.3,24.1,69,48,35,30.15,30.03,3,0,10,0.00
2013-9-22,77.3,63.8,51.4,55.7,45.0,27.2,70,52,36,30.10,29.96,4,0,10,0.01
2013-9-23,61.2,58.1,55.5,51.3,47.2,42.4,70,67,62,30.01,29.98,2,0,8,0.00
2013-9-24,77.1,68.4,59.1,60.4,55.8,44.3,70,65,54,29.98,29.93,6,2,16,0.00
2013-9-25,81.2,66.5,52.3,64.2,47.4,26.6,67,51,33,30.01,29.91,3,0,9,0.00
2013-9-26,87.1,73.3,61.3,64.9,57.1,46.1,69,58,40,30.03,29.93,5,1,15,0.00
2013-9-27,85.1,74.9,64.2,66.1,60.1,49.6,70,61,45,30.08,29.97,8,3,13,0.00
2013-9-28,79.5,69.0,60.3,67.8,49.2,32.1,70,52,31,30.17,29.96,11,4,18,0.75
2013-9-29,75.6,63.3,55.5,59.9,42.5,29.2,71,48,35,30.18,30.04,5,1,13,0.01
2013-9-30,80.1,68.3,56.7,65.8,47.8,31.1,70,49,33,30.05,29.94,4,1,9,0.01
2013-10-1,84.2,74.0,65.6,70.3,53.5,35.7,69,50,32,30.08,29.98,5,1,9,0.00
2013-10-2,82.9,74.3,68.7,70.4,52.8,37.6,67,49,32,30.11,29.98,6,2,11,0.01
2013-10-3,83.3,75.3,69.0,70.5,55.6,37.9,67,52,32,30.02,29.91,9,5,18,0.00
2013-10-4,84.0,76.2,71.4,71.0,58.0,42.3,66,54,35,29.99,29.91,8,4,16,0.00
2013-10-5,73.6,56.8,47.9,58.9,37.4,24.9,70,49,33,30.20,29.97,6,1,19,1.43
2013-10-6,63.0,52.7,42.7,46.7,39.1,23.7,71,60,45,30.16,30.09,8,2,21,0.01
2013-10-7,72.0,55.4,40.9,53.2,36.4,19.4,69,49,36,30.30,30.15,3,0,10,0.00
2013-10-8,71.9,60.4,50.3,53.4,45.5,28.6,70,59,43,30.27,30.16,8,1,14,0.00
2013-10-9,76.0,61.4,48.3,53.7,46.6,30.3,71,60,34,30.24,30.14,4,1,8,0.00
2013-10-10,77.0,64.1,52.2,60.8,51.4,39.1,71,64,51,30.21,30.01,6,2,10,0.00
2013-10-11,75.8,68.2,59.0,64.5,54.4,41.5,69,62,49,30.02,29.93,11,4,23,0.00
2013-10-12,69.9,64.6,58.7,58.9,41.9,32.8,69,45,33,30.28,29.97,6,1,14,1.04
2013-10-13,72.1,63.3,55.5,58.2,51.3,36.0,73,65,46,30.43,30.28,7,2,14,0.12
2013-10-14,66.1,62.4,59.4,55.2,46.6,35.2,71,58,36,30.35,30.06,9,4,17,0.24
2013-10-15,65.4,58.3,51.9,47.3,35.8,28.3,69,45,33,30.20,29.99,6,2,12,0.12
2013-10-16,58.4,51.3,42.2,46.1,39.4,23.7,72,64,46,30.28,30.15,5,1,11,0.00
2013-10-17,63.9,51.1,38.6,47.8,34.1,18.0,70,52,37,30.22,30.10,4,0,9,0.00
2013-10-18,60.0,48.9,41.7,49.5,31.5,19.9,70,52,40,30.24,30.10,5,1,13,0.25
2013-10-19,59.2,45.8,37.2,42.8,29.7,17.3,73,54,41,30.30,30.16,5,1,13,0.00
2013-10-20,57.3,44.6,41.6,44.9,34.5,30.5,73,68,63,30.17,30.12,6,1,11,0.00
2013-10-21,55.6,49.8,38.7,45.0,38.5,20.8,74,65,47,30.25,30.08,4,1,11,0.00
2013-10-22,67.5,50.6,36.6,49.6,34.6,18.8,73,55,42,30.24,30.09,7,1,20,0.00
2013-10-23,62.8,48.2,36.6,44.3,34.3,19.4,73,59,43,30.33,30.14,1,0,4,0.00
2013-10-24,53.8,45.5,36.0,38.0,32.6,23.4,74,61,49,30.57,30.23,7,1,15,0.00
2013-10-25,58.5,44.4,33.5,35.8,30.4,23.3,75,60,37,30.64,30.36,3,1,13,0.00
2013-10-26,63.5,52.5,43.2,53.5,42.2,26.4,77,68,43,30.36,30.23,6,1,14,0.00
2013-10-27,67.5,51.0,38.6,47.0,33.0,20.8,72,51,34,30.25,30.11,3,0,9,0.01
2013-10-28,67.1,58.0,47.0,55.6,40.8,25.0,71,54,35,30.29,30.16,6,2,11,0.00
2013-10-29,69.1,65.4,58.7,50.1,42.5,32.7,55,43,37,30.24,30.07,11,6,21,0.06
2013-10-30,68.5,66.1,63.3,47.0,39.7,34.6,47,38,32,30.13,29.89,13,6,21,1.85
2013-10-31,71.7,60.6,48.6,60.6,38.5,28.3,69,45,33,29.89,29.60,11,4,29,0.28
2013-11-1,66.6,53.7,43.1,48.7,38.4,25.5,72,57,40,30.16,29.88,3,0,14,0.01
2013-11-2,55.5,47.8,38.5,41.2,36.8,24.0,76,66,50,30.36,30.15,7,2,18,0.01
2013-11-3,60.0,49.1,36.1,42.6,36.4,22.3,73,62,46,30.36,30.14,10,4,20,0.00
2013-11-4,61.3,55.6,51.9,50.7,44.5,30.7,72,67,39,30.27,30.12,12,6,22,0.01
2013-11-5,63.5,58.9,55.0,38.6,32.4,27.8,42,37,35,30.25,30.05,10,6,18,0.47
2013-11-6,63.4,44.6,32.7,38.1,27.2,16.1,72,52,33,30.51,30.00,8,3,19,0.42
2013-11-7,60.3,43.8,29.5,42.5,27.9,11.8,72,54,40,30.62,30.50,2,0,5,0.00
2013-11-8,63.7,51.7,39.9,42.6,38.0,30.7,73,61,39,30.50,30.19,11,5,24,0.00
2013-11-9,64.8,54.2,46.2,47.5,42.7,37.7,73,66,43,30.41,30.21,8,2,13,0.00
2013-11-10,67.7,56.4,46.7,47.2,42.5,32.6,73,60,43,30.50,30.38,8,1,15,0.00
2013-11-11,66.4,55.3,42.2,54.7,45.4,31.8,73,69,59,30.56,30.29,9,3,24,0.00
2013-11-12,42.2,32.1,23.0,32.8,21.2,16.9,78,65,42,30.91,30.56,9,3,24,0.00
2013-11-13,49.5,33.8,21.2,24.2,20.4,15.4,83,60,32,30.88,30.48,8,3,13,0.00
2013-11-14,51.0,41.1,28.2,35.0,26.2,21.4,76,57,37,30.48,30.18,13,5,19,0.00
2013-11-15,59.0,50.7,44.0,48.1,39.3,31.6,74,65,46,30.19,29.95,10,6,18,0.01
2013-11-16,70.4,63.8,53.8,59.6,47.6,32.9,70,56,42,29.95,29.68,19,13,31,0.03
2013-11-17,71.7,65.6,51.9,60.6,43.4,24.8,69,46,27,30.18,29.61,18,8,31,0.00
2013-11-18,62.2,50.3,37.1,39.1,30.2,24.2,74,49,24,30.40,30.16,7,1,16,0.00
2013-11-19,59.9,52.2,45.8,31.0,26.6,22.3,49,38,25,30.38,30.16,11,5,19,0.00
2013-11-20,58.6,53.3,46.7,41.3,29.9,18.0,56,41,28,30.17,30.01,15,7,22,0.00
2013-11-21,56.7,50.4,36.2,44.9,28.8,14.7,72,44,35,30.44,30.09,12,4,21,0.62
2013-11-22,36.2,32.5,30.6,22.1,16.1,11.0,65,51,41,30.70,30.44,10,6,20,0.01
2013-11-23,39.1,32.1,23.3,26.2,20.3,12.9,77,62,46,30.86,30.69,8,4,19,0.00
2013-11-24,31.6,26.2,19.4,19.1,14.9,12.4,76,63,45,30.87,30.53,8,1,15,0.00
2013-11-25,37.0,33.2,29.3,29.5,24.8,17.9,81,71,56,30.52,30.36,5,1,8,0.02
2013-11-26,44.6,34.9,27.2,32.3,25.6,18.6,77,69,53,30.53,30.31,14,4,23,0.00
2013-11-27,35.7,25.8,19.3,18.7,14.6,12.3,79,64,40,30.63,30.49,7,1,16,0.00
2013-11-28,54.1,36.9,22.7,31.2,23.8,16.0,82,61,41,30.62,30.46,10,2,16,0.00
2013-11-29,53.4,40.6,30.2,30.9,26.0,21.7,83,59,29,30.67,30.46,7,2,12,0.00
2013-11-30,57.6,46.9,37.0,46.7,36.5,27.1,75,67,53,30.48,30.25,14,6,22,0.00
2013-12-1,55.1,48.8,38.8,41.9,29.5,18.2,61,47,38,30.27,30.02,6,1,9,0.01
2013-12-2,63.6,49.4,37.4,51.9,30.1,16.4,72,48,36,30.02,29.79,6,1,11,0.00
2013-12-3,67.2,53.8,42.4,53.2,35.1,19.2,74,50,37,29.80,29.64,8,3,12,0.02
2013-12-4,58.1,45.0,29.6,48.7,29.8,17.3,73,56,41,30.14,29.63,11,4,19,0.00
2013-12-5,29.5,24.1,20.4,22.6,16.3,10.1,78,72,64,30.48,30.13,9,4,18,0.00
2013-12-6,20.5,18.3,12.3,14.3,10.5,6.2,79,71,64,30.77,30.43,6,2,15,0.00
2013-12-7,21.9,14.5,3.8,14.8,7.5,-0.5,82,74,61,30.85,30.50,7,1,14,0.01
2013-12-8,29.8,26.0,21.7,18.4,14.4,10.8,78,62,54,30.50,30.19,8,3,14,0.00
2013-12-9,27.9,23.3,18.6,18.9,16.2,11.1,79,74,65,30.56,30.37,8,2,13,0.00
2013-12-10,31.9,21.1,8.9,20.5,13.3,2.9,79,71,60,30.64,30.45,9,2,13,0.01
2013-12-11,35.4,26.3,18.6,26.0,16.0,7.8,76,65,53,30.81,30.48,9,1,16,0.00
2013-12-12,39.8,27.8,14.6,27.5,19.6,9.3,79,72,56,30.80,30.44,9,3,12,0.03
2013-12-13,36.9,35.2,29.8,29.5,24.2,15.9,77,65,43,30.44,29.99,12,5,19,0.64
2013-12-14,37.5,31.9,22.6,24.1,16.9,12.2,76,55,42,30.42,29.99,12,4,21,0.10
2013-12-15,52.0,34.4,20.5,37.0,24.2,9.6,77,66,51,30.44,30.28,9,3,13,0.00
2013-12-16,62.1,46.3,34.1,38.9,34.2,27.3,78,64,38,30.29,30.20,9,5,14,0.00
2013-12-17,56.4,43.6,33.9,39.3,31.7,24.2,78,65,41,30.45,30.27,10,2,18,0.00
2013-12-18,62.5,49.0,33.4,41.3,34.7,25.7,78,59,40,30.43,30.07,16,6,25,0.00
2013-12-19,61.0,56.5,51.1,53.0,47.7,40.4,75,72,64,30.07,29.81,18,11,26,0.00
2013-12-20,64.3,41.8,30.1,55.1,28.1,13.9,77,58,49,30.04,29.80,13,5,22,0.00
2013-12-21,35.0,33.2,30.6,14.9,14.2,13.3,50,45,43,29.97,29.65,7,1,16,0.86
2013-12-22,32.9,29.3,26.2,21.9,17.5,12.7,79,62,44,30.55,29.90,8,4,19,0.00
2013-12-23,28.1,23.3,13.6,21.5,17.4,7.2,81,78,75,30.78,30.55,7,1,13,0.00
2013-12-24,41.4,27.1,13.4,30.8,19.8,6.9,83,74,63,30.77,30.42,10,3,18,0.02
2013-12-25,41.7,33.2,26.2,34.6,25.2,12.2,80,72,54,30.57,30.46,4,1,10,0.00
2013-12-26,49.8,35.1,24.3,37.2,21.7,9.4,77,59,41,30.58,30.46,9,3,14,0.01
2013-12-27,56.7,40.6,29.8,37.7,29.4,20.1,77,65,43,30.58,30.45,8,4,12,0.00
2013-12-28,54.6,42.6,32.6,38.3,32.7,26.5,81,69,40,30.45,30.08,10,4,15,0.00
2013-12-29,42.7,30.1,21.1,36.0,23.3,15.3,80,76,58,30.46,30.08,11,5,20,0.02
2013-12-30,37.3,24.5,13.5,23.6,17.0,8.8,87,73,54,30.56,30.42,5,1,10,0.00
2013-12-31,51.9,35.6,21.8,31.3,23.4,15.4,79,63,38,30.57,30.32,12,5,18,0.00
2014-1-1,51.9,39.2,19.7,35.6,27.3,12.1,79,63,45,30.34,30.03,12,7,23,0.00
2014-1-2,21.9,15.8,9.6,13.7,9.5,4.7,81,76,65,30.69,30.35,10,3,18,0.00